[Iaude] MPEC B37: 2024 BN [a=1.43,e=0.29,i=22.1,H=25.0]

mpec at marsden.cfa.harvard.edu mpec at marsden.cfa.harvard.edu
Thu Jan 18 18:20:23 EST 2024


M.P.E.C. 2024-B37                              Issued 2024 January 18, 23:18 UT

     The Minor Planet Electronic Circulars contain information on unusual
         minor planets, routine data on comets and natural satellites,
         and occasional editorial announcements.  They are published
    on behalf of Division F of the International Astronomical Union by the
          Minor Planet Center, Smithsonian Astrophysical Observatory,
                          Cambridge, MA 02138, U.S.A.
			  
             Prepared using the Tamkin Foundation Computer Network

                              MPC at CFA.HARVARD.EDU
            URL https://www.minorplanetcenter.net/    ISSN 1523-6714

                                    2024 BN                                     


Observations:
     K24B00N* C2024 01 17.05497 08 41 37.40 +35 27 09.6          20.4 GVEB037K88
     K24B00N  C2024 01 17.05795 08 41 36.23 +35 26 22.6          20.1 GVEB037K88
     K24B00N  C2024 01 17.06093 08 41 35.11 +35 25 35.5          20.0 GVEB037K88
     K24B00N KC2024 01 17.07836308 41 28.73 +35 21 08.0          20.0 RoEB037K88
     K24B00N KC2024 01 17.08283708 41 27.08 +35 19 57.8          20.2 RoEB037K88
     K24B00N KC2024 01 17.08869608 41 24.84 +35 18 26.1          20.0 RoEB037K88
     K24B00N 1C2024 01 17.10603 08 41 19.43 +35 13 54.1          20.3 VXEB037033
     K24B00N 1C2024 01 17.10689 08 41 19.17 +35 13 41.6          20.4 VXEB037033
     K24B00N 1C2024 01 17.10776 08 41 18.84 +35 13 27.9          20.6 VXEB037033
     K24B00N KC2024 01 17.12053608 41 13.28 +35 10 08.7          20.3 RoEB037K88
     K24B00N KC2024 01 17.12401608 41 12.01 +35 09 15.0          20.3 RoEB037K88
     K24B00N KC2024 01 17.13221408 41 09.05 +35 07 06.5          20.5 RoEB037K88
     K24B00N  C2024 01 17.34527908 40 02.399+34 12 12.64         20.27GVEB037V00
     K24B00N  C2024 01 17.35078608 40 00.268+34 10 45.19         20.39GVEB037V00
     K24B00N  C2024 01 17.35645508 39 58.064+34 09 14.98         20.41GVEB037V00
     K24B00N  C2024 01 17.36195808 39 55.933+34 07 47.46         20.60GVEB037V00
     K24B00N KC2024 01 17.85937908 37 13.366+31 50 54.13         20.2 GVEB037J95
     K24B00N KC2024 01 17.86569008 37 11.078+31 49 08.90         20.0 GVEB037J95
     K24B00N KC2024 01 17.87246608 37 08.678+31 47 16.12         19.8 GVEB037J95
     K24B00N KC2024 01 18.86208608 31 30.550+26 52 57.90         19.6 GVEB037J95
     K24B00N KC2024 01 18.87178008 31 27.074+26 49 57.94         20.3 GVEB037J95
     K24B00N KB2024 01 18.87936308 31 24.97 +26 47 49.1          20.6 GXEB037I93
     K24B00N KB2024 01 18.88604908 31 22.45 +26 45 43.7          20.2 GXEB037I93
     K24B00N 1C2024 01 18.91017 08 31 12.02 +26 38 07.2          19.3 VXEB037033
     K24B00N 1C2024 01 18.91081 08 31 11.73 +26 37 55.3          19.3 VXEB037033
     K24B00N 1C2024 01 18.91144 08 31 11.52 +26 37 43.1          19.4 VXEB037033

Observer details:
033 Karl Schwarzschild Observatory, Tautenburg.  Observers S. Melnikov, C.
    Hogner, F. Ludwig, M. Hartmann, B. Stecklum.  Measurer B. Stecklum.
    1.34-m f/3 Schmidt + CCD.
I93 St Pardon de Conques.  Observer F. Losse.  0.40-m f/3.7 reflector + CMO.
J95 Great Shefford.  Observer P. Birtwhistle.  0.41-m f/6.3 Schmidt-Cassegrain
    + CCD.
K88 GINOP-KHK, Piszkesteto.  Observer K. Sarneczky.  0.60-m Schmidt + CCD.
V00 Kitt Peak-Bok.  Observer R. A. Mastaler.  Measurers M. J. Brucker, C. E.
    Woodward, D. Fay, J. B. Fazekas, D. C. Fuls, A. R. Gibbs, H. Groeller, J.
    K. Hogan, R. A. Kowalski, S. M. Larson, C. Lejoly, G. J. Leonard, R. A.
    Mastaler, R. S. McMillan, D. Rankin, R. L. Seaman, A. Serrano, F. C.
    Shelly, K. W. Wierzchos.  2.25-m reflector + 4x4K mosaic CCD.

Orbital elements:
2024 BN                                                  Earth MOID = 0.0619 AU
Epoch 2023 Sept. 13.0 TT = JDT 2460200.5                Veres                   
M 268.39979              (2000.0)            P               Q                  
n   0.57619764     Peri.  211.82258     -0.84426150     -0.42454406             
a   1.4302822      Node   299.57077     +0.53568906     -0.65013510             
e   0.2902748      Incl.   22.09044     +0.01611676     -0.63014815             
P   1.71           H   25.09          G   0.15           U   8                  
Residuals in seconds of arc
240117 K88  0.6+  0.3+    240117 K88  0.0   0.4-    240117 J95  0.1+  0.1+
240117 K88  0.2-  0.6-    240117 K88  0.1-  0.4+    240118 J95  0.4-  0.3-
240117 K88  0.4-  1.6-    240117 K88  0.1-  0.6+    240118 J95  0.0   0.1+
240117 K88  0.4+  0.8+    240117 V00  0.0   0.1-    240118 I93  0.7+  0.0
240117 K88  0.3+  0.1+    240117 V00  0.0   0.0     240118 I93  0.0   0.8-
240117 K88  0.7-  0.4-    240117 V00  0.1-  0.1-    240118 033  0.5+  0.6+
240117 033  0.2-  0.2-    240117 V00  0.1-  0.1+    240118 033  0.2-  0.7+
240117 033  0.5+  0.7+    240117 J95  0.3+  0.1+    240118 033  0.2+  0.3+
240117 033  0.4+  0.6+    240117 J95  0.2-  0.1-

Ephemeris:
2024 BN                  a,e,i = 1.43, 0.29, 22                  q = 1.0151
Date    TT    R. A. (2000) Decl.     Delta      r    Elong.  Phase     V
2023 12 19    09 56 13.9 +69 17 37   0.2778  1.1529   121.3    46.8    24.4
...
2024 01 03    09 42 52.2 +63 19 21   0.1668  1.0991   130.6    42.8    23.1
...
2024 01 11    09 13 07.9 +53 23 02   0.1119  1.0745   142.6    33.8    21.9
...
2024 01 17    08 41 58.7 +35 41 50   0.07833 1.0584   161.6    17.0    20.6
2024 01 18    08 36 20.6 +31 12 20   0.07407 1.0559   166.2    12.8    20.3
2024 01 19    08 30 38.4 +26 10 55   0.07040 1.0535   171.1     8.3    20.0
...
2024 01 25    07 56 12.8 -11 09 35   0.06487 1.0404   148.8    29.4    20.5
...
2024 02 02    07 14 27.1 -45 48 06   0.09713 1.0269   112.8    62.2    22.3
...
2024 02 17    06 20 18.7 -64 34 21   0.1892  1.0151    92.9    76.4    24.2

M. P. C. Staff               (C) Copyright 2024 MPC           M.P.E.C. 2024-B37





More information about the Iaude mailing list